TimeCST,TemperatureF,Dew PointF,Humidity,Sea Level PressureIn,VisibilityMPH,Wind Direction,Wind SpeedMPH,Gust SpeedMPH,PrecipitationIn,Events,Conditions,WindDirDegrees,DateUTC
12:53 AM,26.1,19.9,78,30.18,10.0,WNW,3.5,-,N/A,,Mostly Cloudy,290,2013-01-16 06:53:00
1:53 AM,24.1,19.0,81,30.18,10.0,Calm,Calm,-,N/A,,Clear,0,2013-01-16 07:53:00
2:53 AM,25.0,19.0,78,30.17,10.0,Calm,Calm,-,N/A,,Clear,0,2013-01-16 08:53:00
3:53 AM,23.0,19.0,85,30.17,10.0,WNW,3.5,-,N/A,,Clear,290,2013-01-16 09:53:00
4:53 AM,21.9,18.0,85,30.14,10.0,Calm,Calm,-,N/A,,Clear,0,2013-01-16 10:53:00
5:53 AM,21.0,17.1,85,30.14,10.0,SSW,4.6,-,N/A,,Clear,210,2013-01-16 11:53:00
6:53 AM,21.0,17.1,85,30.16,10.0,Calm,Calm,-,N/A,,Clear,0,2013-01-16 12:53:00
7:53 AM,21.0,17.1,85,30.17,8.0,WSW,3.5,-,N/A,,Clear,250,2013-01-16 13:53:00
8:53 AM,25.0,19.0,78,30.16,10.0,WSW,3.5,-,N/A,,Clear,250,2013-01-16 14:53:00
9:53 AM,28.9,18.0,64,30.15,10.0,West,6.9,-,N/A,,Clear,260,2013-01-16 15:53:00
10:53 AM,32.0,16.0,52,30.14,10.0,WSW,6.9,-,N/A,,Clear,250,2013-01-16 16:53:00
11:53 AM,36.0,17.1,46,30.10,10.0,Variable,4.6,-,N/A,,Clear,0,2013-01-16 17:53:00
1:53 PM,41.0,19.0,41,30.06,10.0,WSW,9.2,-,N/A,,Clear,250,2013-01-16 19:53:00
2:53 PM,42.1,19.0,40,30.05,10.0,West,11.5,-,N/A,,Clear,260,2013-01-16 20:53:00
3:53 PM,42.1,18.0,38,30.06,10.0,WSW,9.2,-,N/A,,Clear,250,2013-01-16 21:53:00
4:53 PM,39.9,19.0,43,30.09,10.0,SW,4.6,-,N/A,,Clear,230,2013-01-16 22:53:00
5:53 PM,37.9,18.0,45,30.09,10.0,Calm,Calm,-,N/A,,Clear,0,2013-01-16 23:53:00
6:53 PM,37.0,19.0,48,30.12,10.0,SW,3.5,-,N/A,,Clear,230,2013-01-17 00:53:00
7:53 PM,35.1,21.0,57,30.13,10.0,Calm,Calm,-,N/A,,Mostly Cloudy,0,2013-01-17 01:53:00
8:53 PM,37.0,21.0,52,30.14,10.0,WSW,3.5,-,N/A,,Mostly Cloudy,250,2013-01-17 02:53:00
9:53 PM,33.1,21.0,61,30.13,10.0,Calm,Calm,-,N/A,,Clear,0,2013-01-17 03:53:00
10:53 PM,33.1,21.0,61,30.14,10.0,SSW,3.5,-,N/A,,Partly Cloudy,210,2013-01-17 04:53:00
11:53 PM,34.0,21.9,61,30.14,10.0,SW,4.6,-,N/A,,Overcast,230,2013-01-17 05:53:00